sat.trackr.live / text

‹ back to catalog

BEIDOU-2 IGSO-6 (C13)

NORAD 41434 · 2016-021A

PAYLOAD ACTIVE UNKNOWN

§ Identity

Operator
Country
PRC
Launch date
2016-03-29
Launch site
XICLF
Launch vehicle
Mass (kg)
RCS (m²)
26.19

Purposes: comms, nav

External: N2YO · Heavens-Above · Gunter

§ Orbital elements

Epoch: 2026-05-24T16:12:34.305120Z

Period
1,436.21 min
Inclination
60.1943°
Eccentricity
0.0057467
Mean motion
1.00263774 rev/d
Perigee alt
35,546.5 km
Apogee alt
36,031.2 km
Semi-major
42,167.0 km
B*
0.0000e+0
RAAN
38.2721°
Arg perigee
232.2820°
Mean anomaly
308.9754°
Rev number
3,724

§ Raw data

BEIDOU-2 IGSO-6 (C13)1 41434U 16021A   26144.67539705 -.00000178  00000+0  00000+0 0  99902 41434  60.1943  38.2721 0057467 232.2820 308.9754  1.00263774 37244

JSON: /api/v1/satellites/41434 · /tle

For live sub-satellite position, see the globe view (requires WebGL).

§ Visibility from observer

Set your observer location to see the next 7 days of passes ≥ 10°. The values pass through the URL so the page stays shareable.

No JS? Fill the form by hand. The geolocation button needs JavaScript.